Weather in Sarigerme

Turkey     36°42′52″N   28°42′09″E
temp.,
°C
wind,
m/s
gust,
m/s
humid.,
%
clouds,
%
prec.,
mm/h
press.,
hPa
HPBL,
m
14 april, wed
wed1400:00+13e117132 0.0 1020172
03:00+12ene227660 0.0 1019104
06:00+11ne227694 0.0 101954
09:00+16ese12585 0.0 1020422
12:00+17s4560100 0.0 1020885
15:00+18s4559100 0.0 1019905
18:00+16sse346596 0.0 1019768
21:00+14ese227891 0.0 1019228
15 april, thu
thu1500:00+12ene228365 0.0 1019135
03:00+11nne228312 0.0 101845
06:00+11nne2277100 0.0 101845
09:00+16ese125625 0.0 1018307
12:00+18s45570 0.0 1019852
15:00+19s45565 0.0 1017798
18:00+17s3362100 0.0 1016577
21:00+14e1282100 0.0 1017116
16 april, fri
fri1600:00+13nne228380 0.0 101734
03:00+12n227669 0.0 101636
06:00+12nne226864 0.0 101643
09:00+17ene014932 0.0 1016252
12:00+19s3352100 0.0 1017737
15:00+19s335421 0.0 1016611
18:00+18ssw22605 0.0 1016379
21:00+15ne117998 0.0 101716
17 april, sat
sat1700:00+15nne2273100 0.0 101640
03:00+15sw1174100 0.0 101517
06:00+15ne1171100 0.0 101618
09:00+17ne5559100 0.1 1016169
12:00+21ssw4452100 0.0 1016507
15:00+21ssw4554100 0.0 1015513
18:00+19sse365997 0.0 1015289
21:00+17wnw1172100 0.0 101528
18 april, sun
sun1800:00+17w2263100 0.0 101420
03:00+18w5656100 0.0 101598
06:00+17nne3353100 0.0 101530
09:00+19nw2251100 0.0 101752
12:00+21se2348100 0.0 1017197
15:00+23nnw1141100 0.0 1015216
18:00+21ene2248100 0.0 101419
21:00+21ne2243100 0.0 101412